map of SPI home
Great Circle Mapper logo
SPI - Airport
Location
City:  Springfield, Illinois, United States
Name:Abraham Lincoln Capital Airport
ICAO / IATA:KSPI / SPI
FAA:SPI

Details
Type:Airport (Part 139 Class I)
Use:Public/Civil
Latitude:3950'39"N (39.844222)
Longitude:8940'41"W (-89.678082)
Datum:WGS 1984
Elevation:597 ft (182 m)
Variation:1.8W (WMM2015 magnetic declination)
Runways:3
Longest:8001 × 150 ft (2439 × 45.5 m), paved

Time
Time Zone:UTC-6 (DST-5)
Local Time:

Weather
METAR:KSPI 202152Z 15006KT 10SM FEW020 OVC030 03/M01 A3024 RMK AO2 SLP245 T00331006
TAF:KSPI 201732Z 2018/2118 16008KT P6SM OVC025
FM210300 16005KT 4SM BR OVC025

Related Locations
Nearby:
Farthest:MGV: 11015 mi / 17728 km
Margaret River, WA, AU

Find:

   beyond  
but within

Other Information
Maps:
Delays:
NOTAMs:
Links:
Sources:

  
flag of United States
flag of Illinois
  

Airport Diagram

Airport diagram for SPI

Airport diagram PDF

Sectional Chart

Flight Planning
at skyvector.com

Satellite Image

Google Maps Satellite View

 

Copyright © 2004-2014 Karl L. Swartz. All rights reserved.
The Great Circle Mapper name and logo are trademarks of the Great Circle Mapper.
All other trademarks mentioned herein belong to their respective owners.
Please see credits for attibutions and further copyright information.

  Follow gcmap on Facebook Follow gcmap on Twitter

hCard Microformat

Geo Microformat